Location: Horowhenua
(40.7500°S, 175.3333°E)
Time: 13:25:47
(UTC+00:00)

Meteor 1-28 Rocket - Pass Details

Date: 28 January 2023
Orbit: 492 x 511 km, 97.4° (Epoch: 28 March)

Event Time Altitude Azimuth Distance (km) Brightness Sun altitude
Rises 16:11:53 0° 182° (S) 2,631 7.3 -12.1°
Reaches altitude 10° 16:14:16 10° 195° (SSW) 1,733 6.1 -11.7°
Maximum altitude 16:17:18 24° 250° (WSW) 1,085 4.5 -11.2°
Enters shadow 16:19:17 16° 293° (WNW) 1,394 4.8 -10.9°
